Home   Weather   Ulaanbaatar   Past weeks

Flag for Mongolia Past Weather in Ulaanbaatar, Mongolia — Yesterday and Last 2 Weeks

Now
-24 °F

Clear.


Feels Like: -35 °F
Forecast: -31 / 2 °F
Wind: 3 mph from South

Location: Ulan-Bator

Current Time: Jan 21, 2017 at 9:36:24 pm

Latest Report: Jan 21, 2017 at 9:30 pm


Visibility: 10 mi

Pressure: 30.27 "Hg (25.20 "Hg at 1298m altitude)

Humidity: 75%

Dew Point: -29 °F

Location of UlaanbaatarLocation

Past Weather in Ulaanbaatar — Graph

°F

Ulaanbaatar Temperature Yesterday

Maximum temperature yesterday: 1 °F (at 1:30 pm)
Minimum temperature yesterday: -31 °F (at 7:30 am)
Average temperature yesterday: -16 °F

High & Low Weather Summary for the Past Weeks

 TemperatureHumidityPressure
High9 °F (Jan 8, 1:30 pm)85% (Jan 8, 1:00 pm)30.39 "Hg (Jan 8, 1:00 pm)
Low-40 °F (Jan 19, 8:30 am)53% (Jan 19, 4:00 am)30.01 "Hg (Jan 12, 5:30 am)
Average-16 °F72%30.17 "Hg
* Reported Jan 6 8:00 pm — Jan 21 8:30 pm, Ulaanbaatar, Weather by CustomWeather, © 2017

Note: Actual official high and low records may vary slightly from our data, if they occured in-between our weather recording intervals... More about our weather records

Advertising

Ulaanbaatar Weather History for the Previous 24 Hours

Scroll right to see more
 ConditionsComfort  
Time TempWeatherWind HumidityBarometerVisibility
8:30 pm
Sat, Jan 21
-24 °FClear.1 mph68%30.27 "Hg10 mi
8:00 pm-22 °FClear.1 mph75%30.27 "Hg10 mi
7:30 pm-24 °FClear.1 mph61%30.27 "Hg10 mi
7:00 pm-22 °FClear.1 mph68%30.24 "Hg10 mi
6:30 pm-17 °FSunny.1 mph69%30.24 "Hg10 mi
6:00 pm-18 °FSunny.1 mph69%30.24 "Hg10 mi
5:30 pm-9 °FPartly sunny.1 mph77%30.24 "HgN/A
5:00 pm-9 °FPartly sunny.No wind77%30.24 "HgN/A
4:30 pm-8 °FPartly sunny.1 mph77%30.24 "HgN/A
4:00 pm-6 °FPartly sunny.1 mph77%30.24 "HgN/A
3:30 pm-8 °FPartly sunny.1 mph77%30.24 "Hg5 mi
3:00 pm-6 °FPartly sunny.1 mph77%30.24 "Hg5 mi
2:30 pm-6 °FPartly sunny.1 mph77%30.24 "Hg5 mi
2:00 pm-8 °FPartly sunny.3 mph77%30.27 "Hg5 mi
1:30 pm-9 °FPartly sunny.1 mph70%30.27 "Hg5 mi
1:00 pm-9 °FClear.No wind77%30.27 "Hg5 mi
12:30 pm-11 °FClear.No wind76%30.30 "Hg5 mi
12:00 pm-15 °FClear.1 mph76%30.30 "Hg4 mi
11:30 am-18 °FClear.1 mph69%30.33 "Hg4 mi
11:00 am-22 °FClear.1 mph68%30.30 "Hg4 mi
10:30 am-22 °FClear.No wind75%30.30 "Hg4 mi
10:00 am-24 °FClear.No wind68%30.30 "Hg4 mi
9:30 am-26 °FClear.No wind67%30.30 "Hg5 mi
9:00 am-26 °FClear.No wind67%30.30 "Hg2 mi
8:30 am-26 °FIce fog.No wind67%30.27 "Hg2 mi
8:00 am-31 °FClear.No wind60%30.27 "Hg3 mi
7:30 am-31 °FClear.1 mph67%30.27 "Hg4 mi
7:00 am-29 °FClear.1 mph67%30.27 "Hg4 mi
6:30 am-26 °FClear.1 mph67%30.27 "Hg4 mi
6:00 am-22 °FClear.1 mph75%30.27 "Hg4 mi
5:30 am-24 °FClear.1 mph68%30.27 "Hg4 mi
5:00 am-24 °FClear.1 mph68%30.27 "Hg4 mi
4:00 am-22 °FClear.1 mph75%30.27 "Hg5 mi
3:00 am-20 °FPassing clouds.6 mph75%30.27 "HgN/A
2:00 am-22 °FPassing clouds.6 mph68%30.24 "HgN/A
1:00 am-18 °FClear.1 mph75%30.27 "Hg10 mi
12:30 am-18 °FClear.No wind69%30.27 "Hg10 mi
12:00 am-17 °FClear.3 mph76%30.27 "Hg10 mi
11:30 pm
Fri, Jan 20
-20 °FClear.1 mph75%30.24 "Hg10 mi
11:00 pm-20 °FClear.3 mph75%30.24 "Hg10 mi
10:30 pm-22 °FClear.3 mph75%30.24 "Hg10 mi
10:00 pm-22 °FClear.3 mph75%30.24 "Hg10 mi
9:30 pm-24 °FClear.3 mph68%30.24 "Hg10 mi
9:00 pm-22 °FClear.1 mph75%30.24 "Hg10 mi
Weather by CustomWeather, © 2017

See weather overviewHow to use our weather pages